"SCET";"TARGET";"ELECTRON_DENSITY";"ERROR_FLAG";"ELECTRON_DENSITY_ERROR";"FREQ_FCE";"MEASURED_VALUE";"MEASURED_ITEM";"FREQ_PLASMA";"FREQ_UPPER_HYBRID";"FREQ_R_EQUALS_ZERO";"FREQ_L_EQUALS_ZERO";"ORBIT_NUMBER";"SATURN_RADIUS";"SATURN_IAU_LONGITUDE";"SATURN_SLS4_S_LONGITUDE";"SATURN_SLS4_N_LONGITUDE";"SATURN_SLS5_S_LONGITUDE";"SATURN_SLS5_N_LONGITUDE";"SATURN_LOCAL_TIME";"SATURN_KRONOGRAPHIC_LATITUDE";"SATURN_MAGNETIC_LATITUDE";"SATURN_L";"SATURN_L_OFFSET";"SATURN_SOLAR_EQUATORIAL_X";"SATURN_SOLAR_EQUATORIAL_Y";"SATURN_SOLAR_EQUATORIAL_Z";"SATURN_ALTITUDE";"ENCELADUS_ENCOUNTER_NUMBER";"ENCELADUS_RADIUS";"ENCELADUS_COROTATIONAL_X";"ENCELADUS_COROTATIONAL_Y";"ENCELADUS_COROTATIONAL_Z";"ENCELADUS_TRUE_ANOMALY";"ENCELADUS_PERIAPSIS_TIME";"JUPITER_RADIUS";"JUPITER_SYSTEMIII_LONGITUDE";"JUPITER_MAGNETIC_LATITUDE";"JUPITER_MAGNETIC_LOCAL_TIME";"JUPITER_L";"IO_PHASE";"EARTH_RADIUS";"EARTH_MAGNETIC_LATITUDE";"EARTH_LOCAL_TIME";"EARTH_L"
"[UTC]";"[0=Saturn, 1=Enceladus, 2=Jupiter, 3=Earth]";"[cm-3]";"[0=automated, 1=manual]";"[normalized density error]";"[Hz]";"[Hz]";"[0=upper hybrid frequency, 1=plasma frequency cutoff]";"[Hz]";"[Hz]";"[Hz]";"[Hz}";"[0, A, B, C, 3, 4, ... , 292, 293]";"[Rs where 1Rs=60268km]";"[degrees]";"[degrees]";"[degrees]";"[degrees]";"[degrees]";"[hours]";"[degrees]";"[degrees where offset=2293km north]";"[Rs where 1Rs=60268km]";"[Rs where 1Rs=60268km and offset=2293km north]";"[Rs where 1Rs=60268km]";"[Rs where 1Rs=60268km]";"[Rs where 1Rs=60268km]";"[km where ellipsoid a,b=60268km and c=54364km]";"[E0, E1, E2, ... , E21, E22]";"[Renc where 1Renc=252.1km]";"[Renc where 1Renc=252.1km]";"[Renc where 1Renc=252.1km]";"[Renc where 1Renc=252.1km]";"[degrees]";"[UTC]";"[Rj where 1Rj=71492km]";"[degrees]";"[degrees using JRM09 model]";"[hours using JRM09 model]";"[Rj where 1Rj=71492km]";"[degrees]";"[Re where 1Re=6378.1366km]";"[degrees]";"[hours]";"[Re where 1Re=6378.1366km]"
2008-01-27T18:44:24.495Z;0;8.8530e+00;0;     0.144; 12469.184;  29484.822; 0;  26718.424;  29484.822;  33670.777;  21201.594; 57;   3.591;  77.146; 344.079; 278.357; 329.501; 263.564;  22.899;   6.044;   5.440;   3.631;   3.583;  -3.423;   1.015;   0.378;;;;;;;;;;;;;;;;;;
2008-01-27T18:44:40.495Z;0;9.4490e+00;0;     0.170; 12469.184;  30289.645; 0;  27604.021;  30289.645;  34533.922;  22064.740; 57;   3.589;  77.246; 344.177; 278.458; 329.598; 263.666;  22.903;   5.992;   5.388;   3.629;   3.582;  -3.423;   1.011;   0.375;;;;;;;;;;;;;;;;;;
2008-01-27T18:44:48.495Z;0;8.8780e+00;0;     0.198; 12469.184;  29520.186; 0;  26757.443;  29520.186;  33708.777;  21239.596; 57;   3.588;  77.296; 344.226; 278.508; 329.646; 263.717;  22.904;   5.966;   5.362;   3.628;   3.581;  -3.423;   1.010;   0.373;;;;;;;;;;;;;;;;;;
2008-01-27T18:44:56.495Z;0;9.0710e+00;0;     0.203; 12469.184;  29782.223; 0;  27046.262;  29782.223;  33990.141;  21520.955; 57;   3.588;  77.346; 344.275; 278.559; 329.694; 263.768;  22.906;   5.940;   5.335;   3.627;   3.580;  -3.423;   1.008;   0.371;;;;;;;;;;;;;;;;;;
2008-01-27T18:45:04.495Z;0;8.5140e+00;0;     0.092; 12507.937;  29035.273; 0;  26203.027;  29035.273;  33192.988;  20685.051; 57;   3.587;  77.396; 344.323; 278.609; 329.743; 263.819;  22.908;   5.914;   5.309;   3.626;   3.580;  -3.423;   1.006;   0.369;;;;;;;;;;;;;;;;;;
2008-01-27T18:45:12.494Z;0;9.1110e+00;0;     0.130; 12507.937;  29852.541; 0;  27105.824;  29852.541;  34071.910;  21563.973; 57;   3.586;  77.446; 344.372; 278.660; 329.791; 263.870;  22.909;   5.888;   5.283;   3.625;   3.579;  -3.423;   1.005;   0.368;;;;;;;;;;;;;;;;;;
2008-01-27T18:45:20.494Z;0;9.1610e+00;0;     0.189; 12507.937;  29920.406; 0;  27180.549;  29920.406;  34144.727;  21636.789; 57;   3.586;  77.496; 344.421; 278.710; 329.839; 263.921;  22.911;   5.862;   5.257;   3.624;   3.578;  -3.423;   1.003;   0.366;;;;;;;;;;;;;;;;;;
2008-01-27T18:45:28.494Z;0;9.3190e+00;0;     0.174; 12507.937;  30132.002; 0;  27413.301;  30132.002;  34371.598;  21863.664; 57;   3.585;  77.546; 344.470; 278.761; 329.887; 263.972;  22.913;   5.836;   5.231;   3.623;   3.578;  -3.423;   1.001;   0.364;;;;;;;;;;;;;;;;;;
2008-01-27T18:45:36.494Z;0;8.9390e+00;0;     0.116; 12507.937;  29619.031; 0;  26848.438;  29619.031;  33821.172;  21313.234; 57;   3.584;  77.596; 344.519; 278.811; 329.936; 264.023;  22.914;   5.810;   5.205;   3.622;   3.577;  -3.423;   1.000;   0.363;;;;;;;;;;;;;;;;;;
2008-01-27T18:45:44.494Z;0;9.6560e+00;0;     0.165; 12507.937;  30578.980; 0;  27903.863;  30578.980;  34850.082;  22342.145; 57;   3.584;  77.647; 344.568; 278.861; 329.984; 264.074;  22.916;   5.784;   5.179;   3.621;   3.577;  -3.423;   0.998;   0.361;;;;;;;;;;;;;;;;;;
2008-01-27T18:45:52.494Z;0;9.6410e+00;0;     0.157; 12507.937;  30560.271; 0;  27883.359;  30560.271;  34830.074;  22322.139; 57;   3.583;  77.697; 344.617; 278.912; 330.032; 264.125;  22.918;   5.758;   5.152;   3.620;   3.576;  -3.423;   0.997;   0.359;;;;;;;;;;;;;;;;;;
2008-01-27T18:46:00.494Z;0;9.8310e+00;0;     0.158; 12546.996;  30825.844; 0;  28156.803;  30825.844;  35120.723;  22573.727; 57;   3.582;  77.747; 344.665; 278.962; 330.080; 264.176;  22.919;   5.732;   5.126;   3.619;   3.575;  -3.423;   0.995;   0.358;;;;;;;;;;;;;;;;;;
2008-01-27T18:46:08.494Z;0;9.7880e+00;0;     0.154; 12546.996;  30769.547; 0;  28095.158;  30769.547;  35060.555;  22513.561; 57;   3.582;  77.797; 344.714; 279.013; 330.128; 264.227;  22.921;   5.706;   5.100;   3.618;   3.575;  -3.423;   0.993;   0.356;;;;;;;;;;;;;;;;;;
2008-01-27T18:46:16.494Z;0;9.8180e+00;0;     0.170; 12546.996;  30807.992; 0;  28137.258;  30807.992;  35101.645;  22554.648; 57;   3.581;  77.847; 344.763; 279.063; 330.176; 264.278;  22.923;   5.680;   5.074;   3.617;   3.574;  -3.423;   0.992;   0.354;;;;;;;;;;;;;;;;;;
2008-01-27T18:46:24.494Z;0;9.7440e+00;0;     0.169; 12546.996;  30711.281; 0;  28031.334;  30711.281;  34998.270;  22451.273; 57;   3.580;  77.897; 344.812; 279.114; 330.224; 264.329;  22.924;   5.654;   5.047;   3.616;   3.573;  -3.423;   0.990;   0.353;;;;;;;;;;;;;;;;;;
2008-01-27T18:46:32.494Z;0;9.9720e+00;0;     0.151; 12546.996;  31009.502; 0;  28357.752;  31009.502;  35316.895;  22769.898; 57;   3.580;  77.947; 344.861; 279.164; 330.272; 264.380;  22.926;   5.628;   5.021;   3.615;   3.573;  -3.423;   0.988;   0.351;;;;;;;;;;;;;;;;;;
2008-01-27T18:46:40.494Z;0;9.8890e+00;0;     0.168; 12546.996;  30901.469; 0;  28239.576;  30901.469;  35201.520;  22654.523; 57;   3.579;  77.997; 344.910; 279.214; 330.320; 264.432;  22.928;   5.602;   4.995;   3.614;   3.572;  -3.423;   0.987;   0.349;;;;;;;;;;;;;;;;;;
2008-01-27T18:46:48.494Z;0;1.0080e+01;0;     0.167; 12546.996;  31145.191; 0;  28506.066;  31145.191;  35461.727;  22914.729; 57;   3.579;  78.047; 344.958; 279.265; 330.368; 264.483;  22.929;   5.575;   4.969;   3.613;   3.571;  -3.423;   0.985;   0.348;;;;;;;;;;;;;;;;;;
2008-01-27T18:46:56.494Z;0;9.9710e+00;0;     0.157; 12546.996;  31007.586; 0;  28355.656;  31007.586;  35314.848;  22767.854; 57;   3.578;  78.097; 345.007; 279.315; 330.416; 264.534;  22.931;   5.549;   4.942;   3.612;   3.571;  -3.423;   0.983;   0.346;;;;;;;;;;;;;;;;;;
2008-01-27T18:47:04.494Z;0;1.0470e+01;0;     0.141; 12586.560;  31662.049; 0;  29052.777;  31662.049;  36019.855;  23433.295; 57;   3.577;  78.146; 345.056; 279.366; 330.464; 264.585;  22.933;   5.523;   4.916;   3.611;   3.570;  -3.423;   0.982;   0.344;;;;;;;;;;;;;;;;;;
2008-01-27T18:47:12.494Z;0;1.0520e+01;0;     0.145; 12586.560;  31727.309; 0;  29123.885;  31727.309;  36089.352;  23502.793; 57;   3.577;  78.196; 345.105; 279.416; 330.512; 264.636;  22.934;   5.497;   4.890;   3.610;   3.569;  -3.423;   0.980;   0.342;;;;;;;;;;;;;;;;;;
2008-01-27T18:47:20.494Z;0;1.0180e+01;0;     0.155; 12586.560;  31298.605; 0;  28656.260;  31298.605;  35632.445;  23045.885; 57;   3.576;  78.246; 345.154; 279.466; 330.560; 264.687;  22.936;   5.471;   4.863;   3.609;   3.569;  -3.422;   0.979;   0.341;;;;;;;;;;;;;;;;;;
2008-01-27T18:47:28.493Z;0;1.0330e+01;0;     0.163; 12586.560;  31481.766; 0;  28856.197;  31481.766;  35827.758;  23241.199; 57;   3.575;  78.296; 345.202; 279.517; 330.608; 264.738;  22.938;   5.445;   4.837;   3.608;   3.568;  -3.422;   0.977;   0.339;;;;;;;;;;;;;;;;;;
2008-01-27T18:47:36.493Z;0;1.0700e+01;0;     0.146; 12586.560;  31957.105; 0;  29374.055;  31957.105;  36333.926;  23747.367; 57;   3.575;  78.346; 345.251; 279.567; 330.656; 264.790;  22.939;   5.418;   4.811;   3.607;   3.567;  -3.422;   0.975;   0.337;;;;;;;;;;;;;;;;;;
2008-01-27T18:47:44.493Z;0;1.0580e+01;0;     0.107; 12586.560;  31805.586; 0;  29209.139;  31805.586;  36172.691;  23586.131; 57;   3.574;  78.396; 345.300; 279.617; 330.703; 264.841;  22.941;   5.392;   4.784;   3.606;   3.567;  -3.422;   0.974;   0.336;;;;;;;;;;;;;;;;;;
2008-01-27T18:47:52.493Z;0;1.0790e+01;0;     0.127; 12586.560;  32070.539; 0;  29497.424;  32070.539;  36454.570;  23868.010; 57;   3.573;  78.446; 345.349; 279.668; 330.751; 264.892;  22.943;   5.366;   4.758;   3.605;   3.566;  -3.422;   0.972;   0.334;;;;;;;;;;;;;;;;;;
2008-01-27T18:48:00.493Z;0;1.0950e+01;0;     0.145; 12626.096;  32282.297; 0;  29710.746;  32282.297;  36687.098;  24061.002; 57;   3.573;  78.496; 345.397; 279.718; 330.799; 264.943;  22.944;   5.340;   4.732;   3.604;   3.566;  -3.422;   0.970;   0.332;;;;;;;;;;;;;;;;;;
2008-01-27T18:48:08.493Z;0;1.0690e+01;0;     0.154; 12626.096;  31959.352; 0;  29359.527;  31959.352;  36343.641;  23717.543; 57;   3.572;  78.546; 345.446; 279.768; 330.847; 264.994;  22.946;   5.313;   4.705;   3.603;   3.565;  -3.422;   0.969;   0.331;;;;;;;;;;;;;;;;;;
2008-01-27T18:48:16.493Z;0;1.0860e+01;0;     0.147; 12626.096;  32168.162; 0;  29586.691;  32168.162;  36565.766;  23939.670; 57;   3.571;  78.596; 345.495; 279.819; 330.894; 265.046;  22.948;   5.287;   4.679;   3.602;   3.564;  -3.422;   0.967;   0.329;;;;;;;;;;;;;;;;;;
2008-01-27T18:48:24.493Z;0;1.1010e+01;0;     0.133; 12626.096;  32361.773; 0;  29797.082;  32361.773;  36771.555;  24145.459; 57;   3.571;  78.646; 345.544; 279.869; 330.942; 265.097;  22.949;   5.261;   4.652;   3.601;   3.564;  -3.422;   0.965;   0.327;;;;;;;;;;;;;;;;;;
2008-01-27T18:48:32.493Z;0;1.0960e+01;0;     0.145; 12626.096;  32301.477; 0;  29731.584;  32301.477;  36707.484;  24081.387; 57;   3.570;  78.696; 345.592; 279.919; 330.990; 265.148;  22.951;   5.235;   4.626;   3.600;   3.563;  -3.422;   0.964;   0.326;;;;;;;;;;;;;;;;;;
2008-01-27T18:48:40.493Z;0;1.1010e+01;0;     0.141; 12626.096;  32360.816; 0;  29796.043;  32360.816;  36770.539;  24144.441; 57;   3.569;  78.746; 345.641; 279.969; 331.037; 265.199;  22.953;   5.208;   4.600;   3.599;   3.562;  -3.422;   0.962;   0.324;;;;;;;;;;;;;;;;;;
2008-01-27T18:48:48.493Z;0;1.0970e+01;0;     0.105; 12626.096;  32313.699; 0;  29744.863;  32313.699;  36720.473;  24094.375; 57;   3.569;  78.795; 345.690; 280.020; 331.085; 265.251;  22.955;   5.182;   4.573;   3.598;   3.562;  -3.422;   0.961;   0.322;;;;;;;;;;;;;;;;;;
2008-01-27T18:48:56.493Z;0;1.1070e+01;0;     0.154; 12626.096;  32434.717; 0;  29876.287;  32434.717;  36849.047;  24222.949; 57;   3.568;  78.845; 345.738; 280.070; 331.133; 265.302;  22.956;   5.156;   4.547;   3.597;   3.561;  -3.422;   0.959;   0.320;;;;;;;;;;;;;;;;;;
2008-01-27T18:49:04.493Z;0;1.1430e+01;0;     0.156; 12666.416;  32898.816; 0;  30362.707;  32898.816;  37349.391;  24682.975; 57;   3.567;  78.895; 345.787; 280.120; 331.180; 265.353;  22.958;   5.129;   4.520;   3.596;   3.560;  -3.422;   0.957;   0.319;;;;;;;;;;;;;;;;;;
2008-01-27T18:49:12.493Z;0;1.1570e+01;0;     0.117; 12666.416;  33064.195; 0;  30541.822;  33064.195;  37524.754;  24858.336; 57;   3.567;  78.945; 345.836; 280.171; 331.228; 265.405;  22.960;   5.103;   4.494;   3.595;   3.560;  -3.422;   0.956;   0.317;;;;;;;;;;;;;;;;;;
2008-01-27T18:49:20.493Z;0;1.1030e+01;0;     0.116; 12666.416;  32396.568; 0;  29817.771;  32396.568;  36816.141;  24149.723; 57;   3.566;  78.995; 345.884; 280.221; 331.275; 265.456;  22.961;   5.077;   4.467;   3.594;   3.559;  -3.422;   0.954;   0.315;;;;;;;;;;;;;;;;;;
2008-01-27T18:49:28.493Z;0;1.0930e+01;0;     0.133; 12666.416;  32279.924; 0;  29690.998;  32279.924;  36692.145;  24025.727; 57;   3.565;  79.045; 345.933; 280.271; 331.323; 265.507;  22.963;   5.050;   4.441;   3.593;   3.559;  -3.422;   0.952;   0.314;;;;;;;;;;;;;;;;;;
2008-01-27T18:49:36.493Z;0;1.0950e+01;0;     0.101; 12666.416;  32298.797; 0;  29711.516;  32298.797;  36712.211;  24045.793; 57;   3.565;  79.094; 345.982; 280.321; 331.370; 265.559;  22.965;   5.024;   4.414;   3.592;   3.558;  -3.421;   0.951;   0.312;;;;;;;;;;;;;;;;;;
2008-01-27T18:49:44.493Z;0;1.1040e+01;0;     0.117; 12666.416;  32416.527; 0;  29839.457;  32416.527;  36837.352;  24170.934; 57;   3.564;  79.144; 346.030; 280.372; 331.418; 265.610;  22.966;   4.998;   4.388;   3.591;   3.557;  -3.421;   0.949;   0.310;;;;;;;;;;;;;;;;;;
2008-01-27T18:49:52.492Z;0;1.1000e+01;0;     0.123; 12666.416;  32366.383; 0;  29784.973;  32366.383;  36784.055;  24117.641; 57;   3.563;  79.194; 346.079; 280.422; 331.465; 265.661;  22.968;   4.971;   4.361;   3.590;   3.557;  -3.421;   0.947;   0.309;;;;;;;;;;;;;;;;;;
2008-01-27T18:50:00.492Z;0;1.1060e+01;0;     0.130; 12706.849;  32460.102; 0;  29869.619;  32460.102;  36891.273;  24184.424; 57;   3.563;  79.244; 346.128; 280.472; 331.512; 265.713;  22.970;   4.945;   4.335;   3.589;   3.556;  -3.421;   0.946;   0.307;;;;;;;;;;;;;;;;;;
2008-01-27T18:50:08.492Z;0;1.1060e+01;0;     0.149; 12706.849;  32457.451; 0;  29866.740;  32457.451;  36888.457;  24181.607; 57;   3.562;  79.294; 346.176; 280.522; 331.560; 265.763;  22.971;   4.918;   4.308;   3.589;   3.555;  -3.421;   0.944;   0.305;;;;;;;;;;;;;;;;;;
2008-01-27T18:50:16.492Z;0;1.1330e+01;0;     0.139; 12706.849;  32786.352; 0;  30223.846;  32786.352;  37237.836;  24530.986; 57;   3.562;  79.344; 346.225; 280.572; 331.608; 265.814;  22.973;   4.892;   4.282;   3.588;   3.555;  -3.421;   0.942;   0.304;;;;;;;;;;;;;;;;;;
2008-01-27T18:50:24.492Z;0;1.1490e+01;0;     0.107; 12706.849;  32984.723; 0;  30438.922;  32984.723;  37448.344;  24741.494; 57;   3.561;  79.393; 346.274; 280.623; 331.656; 265.865;  22.975;   4.866;   4.255;   3.587;   3.554;  -3.421;   0.941;   0.302;;;;;;;;;;;;;;;;;;
2008-01-27T18:50:32.492Z;0;1.1220e+01;0;     0.145; 12706.849;  32651.781; 0;  30077.812;  32651.781;  37094.941;  24388.092; 57;   3.560;  79.443; 346.322; 280.673; 331.704; 265.915;  22.976;   4.839;   4.229;   3.586;   3.554;  -3.421;   0.939;   0.300;;;;;;;;;;;;;;;;;;
2008-01-27T18:50:40.492Z;0;1.1470e+01;0;     0.167; 12706.849;  32957.359; 0;  30409.268;  32957.359;  37419.316;  24712.467; 57;   3.560;  79.493; 346.371; 280.723; 331.753; 265.966;  22.978;   4.813;   4.202;   3.585;   3.553;  -3.421;   0.938;   0.298;;;;;;;;;;;;;;;;;;
2008-01-27T18:50:48.492Z;0;1.1320e+01;0;     0.145; 12706.849;  32780.129; 0;  30217.096;  32780.129;  37231.230;  24524.381; 57;   3.559;  79.543; 346.419; 280.773; 331.801; 266.017;  22.980;   4.786;   4.175;   3.584;   3.552;  -3.421;   0.936;   0.297;;;;;;;;;;;;;;;;;;
2008-01-27T18:50:56.492Z;0;1.1640e+01;0;     0.142; 12706.849;  33164.223; 0;  30633.342;  33164.223;  37638.688;  24931.838; 57;   3.558;  79.592; 346.468; 280.823; 331.848; 266.067;  22.981;   4.760;   4.149;   3.583;   3.552;  -3.421;   0.934;   0.295;;;;;;;;;;;;;;;;;;
2008-01-27T18:51:04.492Z;0;1.1820e+01;0;     0.168; 12747.756;  33399.059; 0;  30870.566;  33399.059;  37895.586;  25147.830; 57;   3.558;  79.642; 346.517; 280.873; 331.896; 266.118;  22.983;   4.733;   4.122;   3.582;   3.551;  -3.421;   0.933;   0.293;;;;;;;;;;;;;;;;;;
2008-01-27T18:51:12.492Z;0;1.1080e+01;0;     0.134; 12747.756;  32496.533; 0;  29891.795;  32496.533;  36937.676;  24189.920; 57;   3.557;  79.692; 346.565; 280.924; 331.944; 266.169;  22.985;   4.707;   4.096;   3.581;   3.550;  -3.421;   0.931;   0.292;;;;;;;;;;;;;;;;;;
2008-01-27T18:51:20.492Z;0;1.1110e+01;0;     0.142; 12747.756;  32529.025; 0;  29927.115;  32529.025;  36972.219;  24224.463; 57;   3.556;  79.742; 346.614; 280.974; 331.992; 266.219;  22.987;   4.680;   4.069;   3.580;   3.550;  -3.421;   0.929;   0.290;;;;;;;;;;;;;;;;;;
2008-01-27T18:51:28.492Z;0;1.1930e+01;0;     0.150; 12747.756;  33529.801; 0;  31011.969;  33529.801;  38034.082;  25286.326; 57;   3.556;  79.791; 346.662; 281.024; 332.040; 266.270;  22.988;   4.654;   4.042;   3.579;   3.549;  -3.420;   0.928;   0.288;;;;;;;;;;;;;;;;;;
2008-01-27T18:51:36.492Z;0;1.1280e+01;0;     0.160; 12747.756;  32743.840; 0;  30160.467;  32743.840;  37200.492;  24452.734; 57;   3.555;  79.841; 346.711; 281.074; 332.088; 266.320;  22.990;   4.627;   4.016;   3.578;   3.549;  -3.420;   0.926;   0.287;;;;;;;;;;;;;;;;;;
2008-01-27T18:51:44.492Z;0;1.1170e+01;0;     0.136; 12747.756;  32613.256; 0;  30018.646;  32613.256;  37061.750;  24313.994; 57;   3.554;  79.891; 346.759; 281.124; 332.136; 266.371;  22.992;   4.601;   3.989;   3.577;   3.548;  -3.420;   0.924;   0.285;;;;;;;;;;;;;;;;;;
2008-01-27T18:51:52.492Z;0;1.1240e+01;0;     0.157; 12747.756;  32691.006; 0;  30103.100;  32691.006;  37144.367;  24396.609; 57;   3.554;  79.941; 346.808; 281.174; 332.184; 266.422;  22.993;   4.574;   3.962;   3.577;   3.547;  -3.420;   0.923;   0.283;;;;;;;;;;;;;;;;;;
2008-01-27T18:52:08.492Z;0;1.1730e+01;0;     0.156; 12788.636;  33310.348; 0;  30757.602;  33310.348;  37809.559;  25020.922; 57;   3.553;  80.040; 346.905; 281.274; 332.280; 266.523;  22.997;   4.521;   3.909;   3.575;   3.546;  -3.420;   0.919;   0.280;;;;;;;;;;;;;;;;;;
2008-01-27T18:52:24.491Z;0;1.1270e+01;0;     0.144; 12788.636;  32745.119; 0;  30144.545;  32745.119;  37209.590;  24420.953; 57;   3.551;  80.139; 347.002; 281.375; 332.376; 266.624;  23.000;   4.468;   3.856;   3.573;   3.545;  -3.420;   0.916;   0.277;;;;;;;;;;;;;;;;;;
2008-01-27T18:52:32.491Z;0;1.1050e+01;0;     0.092; 12788.636;  32471.365; 0;  29846.949;  32471.365;  36918.531;  24129.896; 57;   3.551;  80.189; 347.050; 281.425; 332.424; 266.675;  23.002;   4.441;   3.829;   3.572;   3.544;  -3.420;   0.914;   0.275;;;;;;;;;;;;;;;;;;
2008-01-27T18:52:40.491Z;0;1.1650e+01;0;     0.109; 12788.636;  33207.406; 0;  30646.086;  33207.406;  37700.387;  24911.750; 57;   3.550;  80.239; 347.099; 281.475; 332.472; 266.725;  23.003;   4.415;   3.802;   3.571;   3.544;  -3.420;   0.913;   0.273;;;;;;;;;;;;;;;;;;
2008-01-27T18:52:48.491Z;0;1.2590e+01;0;     0.200; 12788.636;  34330.734; 0;  31859.852;  34330.734;  38889.508;  26100.873; 57;   3.549;  80.288; 347.147; 281.525; 332.520; 266.776;  23.005;   4.388;   3.775;   3.570;   3.543;  -3.420;   0.911;   0.271;;;;;;;;;;;;;;;;;;
2008-01-27T18:52:56.491Z;0;1.1660e+01;0;     0.115; 12788.636;  33223.297; 0;  30663.305;  33223.297;  37717.242;  24928.605; 57;   3.549;  80.338; 347.196; 281.575; 332.567; 266.826;  23.007;   4.362;   3.749;   3.569;   3.542;  -3.420;   0.910;   0.270;;;;;;;;;;;;;;;;;;
2008-01-27T18:53:04.491Z;0;1.1710e+01;0;     0.118; 12829.768;  33295.172; 0;  30724.021;  33295.172;  37801.445;  24971.678; 57;   3.548;  80.388; 347.244; 281.625; 332.615; 266.877;  23.009;   4.335;   3.722;   3.568;   3.542;  -3.419;   0.908;   0.268;;;;;;;;;;;;;;;;;;
2008-01-27T18:53:12.491Z;0;1.1860e+01;0;     0.109; 12829.768;  33483.512; 0;  30928.023;  33483.512;  38001.168;  25171.400; 57;   3.547;  80.437; 347.293; 281.675; 332.663; 266.927;  23.010;   4.308;   3.695;   3.568;   3.541;  -3.419;   0.906;   0.266;;;;;;;;;;;;;;;;;;
2008-01-27T18:53:20.491Z;0;1.2390e+01;0;     0.189; 12829.768;  34116.863; 0;  31612.615;  34116.863;  38671.793;  25842.025; 57;   3.547;  80.487; 347.341; 281.725; 332.711; 266.978;  23.012;   4.282;   3.668;   3.567;   3.540;  -3.419;   0.905;   0.265;;;;;;;;;;;;;;;;;;
2008-01-27T18:53:36.491Z;0;1.2120e+01;0;     0.142; 12829.768;  33795.617; 0;  31265.648;  33795.617;  38331.832;  25502.064; 57;   3.546;  80.586; 347.438; 281.825; 332.807; 267.079;  23.015;   4.228;   3.615;   3.565;   3.539;  -3.419;   0.901;   0.261;;;;;;;;;;;;;;;;;;
2008-01-27T18:53:44.491Z;0;1.1930e+01;0;     0.151; 12829.768;  33560.406; 0;  31011.254;  33560.406;  38082.668;  25252.902; 57;   3.545;  80.636; 347.487; 281.875; 332.854; 267.129;  23.017;   4.202;   3.588;   3.564;   3.539;  -3.419;   0.900;   0.260;;;;;;;;;;;;;;;;;;
2008-01-27T18:53:52.491Z;0;1.1880e+01;0;     0.136; 12829.768;  33506.137; 0;  30952.516;  33506.137;  38025.152;  25195.383; 57;   3.544;  80.685; 347.535; 281.925; 332.902; 267.180;  23.019;   4.175;   3.561;   3.563;   3.538;  -3.419;   0.898;   0.258;;;;;;;;;;;;;;;;;;
2008-01-27T18:54:00.491Z;0;1.2020e+01;0;     0.134; 12871.628;  33689.469; 0;  31133.607;  33689.469;  38227.656;  25356.027; 57;   3.544;  80.735; 347.583; 281.975; 332.950; 267.230;  23.020;   4.148;   3.534;   3.562;   3.537;  -3.419;   0.896;   0.256;;;;;;;;;;;;;;;;;;
2008-01-27T18:54:08.491Z;0;1.2280e+01;0;     0.161; 12871.628;  34004.891; 0;  31474.652;  34004.891;  38561.715;  25690.086; 57;   3.543;  80.784; 347.632; 282.025; 332.998; 267.281;  23.022;   4.121;   3.507;   3.561;   3.537;  -3.419;   0.895;   0.254;;;;;;;;;;;;;;;;;;
2008-01-27T18:54:16.491Z;0;1.2010e+01;0;     0.115; 12871.628;  33683.094; 0;  31126.709;  33683.094;  38220.898;  25349.271; 57;   3.542;  80.834; 347.680; 282.075; 333.046; 267.331;  23.024;   4.095;   3.481;   3.561;   3.536;  -3.419;   0.893;   0.253;;;;;;;;;;;;;;;;;;
2008-01-27T18:54:32.490Z;0;1.2100e+01;0;     0.110; 12871.628;  33788.312; 0;  31240.539;  33788.312;  38332.379;  25460.752; 57;   3.541;  80.933; 347.777; 282.175; 333.141; 267.432;  23.027;   4.041;   3.427;   3.559;   3.535;  -3.418;   0.890;   0.249;;;;;;;;;;;;;;;;;;
2008-01-27T18:54:40.490Z;0;1.2200e+01;0;     0.131; 12871.628;  33903.699; 0;  31365.299;  33903.699;  38454.586;  25582.957; 57;   3.540;  80.983; 347.825; 282.225; 333.189; 267.483;  23.029;   4.014;   3.400;   3.558;   3.534;  -3.418;   0.888;   0.248;;;;;;;;;;;;;;;;;;
2008-01-27T18:54:48.490Z;0;1.2550e+01;0;     0.128; 12871.628;  34313.465; 0;  31807.783;  34313.465;  38888.160;  26016.533; 57;   3.540;  81.032; 347.874; 282.275; 333.237; 267.533;  23.031;   3.988;   3.373;   3.557;   3.534;  -3.418;   0.886;   0.246;;;;;;;;;;;;;;;;;;
2008-01-27T18:55:04.490Z;0;1.3130e+01;0;     0.124; 12913.712;  35003.602; 0;  32534.414;  35003.602;  39625.805;  26712.092; 57;   3.539;  81.131; 347.970; 282.375; 333.332; 267.634;  23.034;   3.934;   3.319;   3.555;   3.533;  -3.418;   0.883;   0.243;;;;;;;;;;;;;;;;;;
2008-01-27T18:55:12.490Z;0;1.2770e+01;0;     0.118; 12913.712;  34593.102; 0;  32092.346;  34593.102;  39192.305;  26278.594; 57;   3.538;  81.181; 348.019; 282.425; 333.380; 267.684;  23.036;   3.907;   3.292;   3.554;   3.532;  -3.418;   0.881;   0.241;;;;;;;;;;;;;;;;;;
2008-01-27T18:55:20.490Z;0;1.2880e+01;0;     0.150; 12913.712;  34719.844; 0;  32228.924;  34719.844;  39326.211;  26412.500; 57;   3.537;  81.230; 348.067; 282.475; 333.428; 267.735;  23.037;   3.880;   3.265;   3.554;   3.531;  -3.418;   0.880;   0.239;;;;;;;;;;;;;;;;;;
2008-01-27T18:55:28.490Z;0;1.2760e+01;0;     0.164; 12913.712;  34581.496; 0;  32079.836;  34581.496;  39180.043;  26266.330; 57;   3.537;  81.280; 348.115; 282.525; 333.476; 267.785;  23.039;   3.854;   3.238;   3.553;   3.531;  -3.418;   0.878;   0.238;;;;;;;;;;;;;;;;;;
2008-01-27T18:55:36.490Z;0;1.3400e+01;0;     0.119; 12913.712;  35316.605; 0;  32870.938;  35316.605;  39955.957;  27042.242; 57;   3.536;  81.329; 348.164; 282.575; 333.523; 267.836;  23.041;   3.827;   3.211;   3.552;   3.530;  -3.418;   0.877;   0.236;;;;;;;;;;;;;;;;;;
2008-01-27T18:55:44.490Z;0;1.3570e+01;0;     0.152; 12913.712;  35516.672; 0;  33085.797;  35516.672;  40166.809;  27253.098; 57;   3.535;  81.379; 348.212; 282.624; 333.571; 267.886;  23.043;   3.800;   3.184;   3.551;   3.530;  -3.418;   0.875;   0.234;;;;;;;;;;;;;;;;;;